Tracking 19176 objects as of 27-May-2018
HD Live streaming from Space Station
objects crossing your sky now

GALS 2

Track GALS 2 now!
GALS 2 is classified as:


NORAD ID: 23717
Int'l Code: 1995-063A
Perigee: 35,856.8 km
Apogee: 35,943.3 km
Inclination: 13.3 °
Period: 1,441.5 minutes
Semi major axis: 42271 km
RCS: 8.9125 m2 (large)
Launch date: November 17, 1995
Source: Commonwealth of Independent States (former USSR) (CIS)
Launch site: TYURATAM MISSILE AND SPACE COMPLEX (TTMTR)
aabbcc
Your satellite tracking list
Your tracking list is empty




NASA's NSSDC Master Catalog

Two Line Element Set (TLE):
1 23717U 95063A   18147.46799235 -.00000345  00000-0  00000+0 0  9991
2 23717  13.2893  25.9821 0010234 280.4364 247.9899  0.99893726 82272
Source of the keplerian elements: AFSPC